EW0609 Weather Reports


Display with metric or nautical units.
time (UTC)temp
F
wind
direction
speed
MPH
gust
MPH
rain 1hr
in
rain 24hr
in
rain mn
in
humidity
%
barometer
mb
20260905172807 92 175 8.0 15.0 0.00 0.00 0.00 44 1016.8
20260905172312 92 195 7.0 14.0 0.00 0.00 0.00 45 1016.8
20260905171809 92 171 5.0 14.0 0.00 0.00 0.00 46 1016.9
20260905171705 91 157 6.0 14.0 0.00 0.00 0.00 46 1016.9
20260905170812 91 197 8.0 12.0 0.00 0.00 0.00 47 1016.9
20260905170308 90 123 5.0 12.0 0.00 0.00 0.00 48 1016.9
20260905165811 90 164 5.0 13.0 0.00 0.00 0.00 48 1016.8
20260905165307 90 188 8.0 15.0 0.00 0.00 0.00 48 1016.9
20260905164810 89 130 9.0 15.0 0.00 0.00 0.00 49 1016.7
20260905164308 89 188 4.0 13.0 0.00 0.00 0.00 52 1016.7
20260905164035 88 357 7.0 12.0 0.00 0.00 0.00 51 1016.8
20260905163809 88 357 7.0 12.0 0.00 0.00 0.00 51 1016.8
20260905163310 88 166 6.0 12.0 0.00 0.00 0.00 52 1016.8
20260905162809 87 173 6.0 14.0 0.00 0.00 0.00 54 1016.8
20260905162713 87 151 7.0 14.0 0.00 0.00 0.00 54 1016.8
20260905161810 86 6 6.0 13.0 0.00 0.00 0.00 55 1016.9
20260905161538 85 172 6.0 13.0 0.00 0.00 0.00 56 1016.9
20260905161310 85 172 6.0 13.0 0.00 0.00 0.00 56 1016.9
20260905160809 85 213 5.0 13.0 0.00 0.00 0.00 56 1016.9
20260905160511 84 171 7.0 13.0 0.00 0.00 0.00 59 1016.9
20260905160357 85 66 8.0 13.0 0.00 0.00 0.00 57 1016.9
20260905155308 84 202 7.0 16.0 0.00 0.00 0.00 57 1016.9
20260905154808 83 188 7.0 16.0 0.00 0.00 0.00 59 1016.9
20260905154311 84 199 6.0 15.0 0.00 0.00 0.00 58 1017.1
20260905153806 83 164 6.0 15.0 0.00 0.00 0.00 58 1016.9
20260905153308 83 199 3.0 16.0 0.00 0.00 0.00 59 1016.9
20260905152812 82 227 9.0 16.0 0.00 0.00 0.00 59 1016.9
20260905152308 82 188 6.0 14.0 0.00 0.00 0.00 60 1016.9
20260905151952 81 152 9.0 15.0 0.00 0.00 0.00 61 1016.9
20260905151908 82 197 6.0 15.0 0.00 0.00 0.00 61 1016.9
20260905151317 81 152 9.0 15.0 0.00 0.00 0.00 61 1016.9
20260905150807 81 223 6.0 13.0 0.00 0.00 0.00 62 1016.9
20260905150307 81 192 5.0 13.0 0.00 0.00 0.00 62 1016.9
20260905150032 80 173 4.0 14.0 0.00 0.00 0.00 63 1017.1
20260905145308 80 154 6.0 14.0 0.00 0.00 0.00 64 1017.1
20260905144808 80 134 6.0 14.0 0.00 0.00 0.00 65 1017.1
20260905144307 79 204 6.0 14.0 0.00 0.00 0.00 65 1017.1
20260905143808 79 152 6.0 12.0 0.00 0.00 0.00 65 1017.1
20260905143307 79 93 4.0 12.0 0.00 0.00 0.00 66 1016.9
20260905143143 78 158 5.0 12.0 0.00 0.00 0.00 66 1017.1
20260905142307 78 133 6.0 13.0 0.00 0.00 0.00 67 1017.1
20260905141806 78 214 3.0 13.0 0.00 0.00 0.00 67 1017.2
20260905141308 78 192 5.0 9.0 0.00 0.00 0.00 67 1017.1
20260905140807 77 142 4.0 11.0 0.00 0.00 0.00 68 1017.1
20260905140307 76 145 5.0 11.0 0.00 0.00 0.00 68 1017.2
20260905135806 76 123 5.0 11.0 0.00 0.00 0.00 69 1017.2
20260905135307 76 155 3.0 10.0 0.00 0.00 0.00 70 1017.1
20260905134808 75 113 5.0 10.0 0.00 0.00 0.00 70 1017.1
20260905134636 75 118 3.0 10.0 0.00 0.00 0.00 71 1017.1
20260905134118 74 144 1.0 7.0 0.00 0.00 0.00 72 1017.1
20260905133307 74 103 4.0 7.0 0.00 0.00 0.00 73 1017.1
20260905132806 74 100 2.0 6.0 0.00 0.00 0.00 73 1017.1
20260905132306 73 140 2.0 5.0 0.00 0.00 0.00 74 1017.1
20260905131806 73 178 2.0 5.0 0.00 0.00 0.00 75 1016.9
20260905131631 73 157 2.0 5.0 0.00 0.00 0.00 75 1016.8
20260905130807 72 165 2.0 6.0 0.00 0.00 0.00 75 1016.7
20260905130306 72 169 2.0 6.0 0.00 0.00 0.00 76 1016.7
20260905125814 72 117 2.0 6.0 0.00 0.00 0.00 76 1016.8
20260905125307 72 124 4.0 6.0 0.00 0.00 0.00 76 1016.7
20260905125140 72 116 3.0 6.0 0.00 0.00 0.00 76 1016.6
20260905124314 72 128 4.0 6.0 0.00 0.00 0.00 76 1016.7
20260905123807 72 120 3.0 10.0 0.00 0.00 0.00 76 1016.4
20260905123306 72 128 5.0 10.0 0.00 0.00 0.00 75 1016.5
20260905122806 72 135 4.0 7.0 0.00 0.00 0.00 74 1016.5
20260905122307 73 111 5.0 9.0 0.00 0.00 0.00 74 1016.4
20260905121806 73 141 4.0 11.0 0.00 0.00 0.00 74 1016.4
20260905121306 73 121 5.0 11.0 0.00 0.00 0.00 74 1016.4
20260905120807 73 89 4.0 10.0 0.00 0.00 0.00 74 1016.4
20260905120307 73 102 4.0 10.0 0.00 0.00 0.00 74 1016.4
20260905115806 73 123 4.0 7.0 0.00 0.00 0.00 73 1016.4
20260905115306 73 79 4.0 7.0 0.00 0.00 0.00 73 1016.4
20260905114806 73 116 4.0 7.0 0.00 0.00 0.00 73 1016.3
20260905114308 73 127 2.0 9.0 0.00 0.00 0.00 73 1016.3
20260905113806 73 128 3.0 9.0 0.00 0.00 0.00 73 1016.2
20260905113306 74 89 4.0 10.0 0.00 0.00 0.00 72 1016.3
20260905113136 74 99 6.0 10.0 0.00 0.00 0.00 72 1016.4
20260905112307 74 134 2.0 7.0 0.00 0.00 0.00 71 1016.4
20260905111806 74 102 2.0 7.0 0.00 0.00 0.00 70 1016.4
20260905111306 74 109 3.0 7.0 0.00 0.00 0.00 70 1016.3
20260905110807 75 110 5.0 7.0 0.00 0.00 0.00 69 1016.2
20260905110306 75 107 4.0 7.0 0.00 0.00 0.00 69 1016.1
20260905105806 75 99 3.0 5.0 0.00 0.00 0.00 69 1016.1
20260905105310 75 141 2.0 7.0 0.00 0.00 0.00 68 1016.1
20260905104807 75 106 5.0 7.0 0.00 0.00 0.00 68 1015.9
20260905104306 75 111 3.0 6.0 0.00 0.00 0.00 68 1016.1
20260905103808 75 114 3.0 6.0 0.00 0.00 0.00 67 1015.8
20260905103638 75 100 4.0 5.0 0.00 0.00 0.00 67 1015.9
20260905102806 75 104 1.0 4.0 0.00 0.00 0.00 67 1015.8
20260905102306 75 96 2.0 4.0 0.00 0.00 0.00 67 1015.9
20260905101806 76 110 1.0 4.0 0.00 0.00 0.00 67 1015.8
20260905101306 76 131 2.0 3.0 0.00 0.00 0.00 66 1015.8
20260905100806 76 123 1.0 3.0 0.00 0.00 0.00 66 1015.8
20260905100306 76 135 2.0 5.0 0.00 0.00 0.00 65 1015.8
20260905095806 76 140 2.0 6.0 0.00 0.00 0.00 65 1015.9
20260905095306 76 157 2.0 6.0 0.00 0.00 0.00 65 1015.9
20260905095012 76 173 1.0 5.0 0.00 0.00 0.00 65 1015.9
20260905094923 76 159 2.0 6.0 0.00 0.00 0.00 65 1015.9
20260905093808 76 158 1.0 4.0 0.00 0.00 0.00 64 1015.8
20260905093306 77 103 2.0 6.0 0.00 0.00 0.00 64 1016.1
20260905093136 77 152 2.0 6.0 0.00 0.00 0.00 63 1016.1
20260905092631 77 147 2.0 7.0 0.00 0.00 0.00 63 1016.1
20260905092131 77 168 3.0 7.0 0.00 0.00 0.00 62 1016.2
20260905091306 78 134 3.0 6.0 0.00 0.00 0.00 62 1016.2
20260905090807 78 96 3.0 7.0 0.00 0.00 0.00 62 1016.1
20260905090306 78 185 3.0 7.0 0.00 0.00 0.00 62 1016.2
20260905085806 78 165 3.0 9.0 0.00 0.00 0.00 62 1016.2
20260905085306 78 196 2.0 10.0 0.00 0.00 0.00 61 1016.2
20260905084807 78 180 4.0 10.0 0.00 0.00 0.00 61 1016.2
20260905084307 78 125 3.0 7.0 0.00 0.00 0.00 61 1016.2
20260905084013 78 145 3.0 7.0 0.00 0.00 0.00 61 1016.2
20260905083917 78 199 3.0 7.0 0.00 0.00 0.00 61 1016.3
20260905083138 78 183 3.0 7.0 0.00 0.00 0.00 61 1016.2
20260905082307 78 189 2.0 9.0 0.00 0.00 0.00 61 1016.2
20260905081806 78 144 4.0 9.0 0.00 0.00 0.00 60 1016.2
20260905081307 78 180 5.0 7.0 0.00 0.00 0.00 60 1016.2
20260905081143 78 134 3.0 6.0 0.00 0.00 0.00 60 1016.2
20260905080307 78 169 3.0 7.0 0.00 0.00 0.00 60 1016.1
20260905075807 79 186 3.0 12.0 0.00 0.00 0.00 60 1016.1
20260905075306 79 173 4.0 12.0 0.00 0.00 0.00 59 1016.2
20260905075138 79 149 5.0 10.0 0.00 0.00 0.00 59 1016.2
20260905074307 79 197 4.0 7.0 0.00 0.00 0.00 59 1016.2
20260905073805 79 172 5.0 10.0 0.00 0.00 0.00 59 1016.2
20260905073312 79 175 5.0 10.0 0.00 0.00 0.00 59 1016.2
20260905072806 79 188 4.0 10.0 0.00 0.00 0.00 59 1016.3
20260905072307 79 193 4.0 9.0 0.00 0.00 0.00 59 1016.3
20260905071809 79 214 4.0 10.0 0.00 0.00 0.00 59 1016.2
20260905071307 79 107 6.0 12.0 0.00 0.00 0.00 59 1016.3
20260905070806 79 165 5.0 12.0 0.00 0.00 0.00 59 1016.3
20260905070306 80 171 5.0 11.0 0.00 0.00 0.00 58 1016.3
20260905065806 80 213 6.0 11.0 0.00 0.00 0.00 58 1016.3
20260905065307 80 240 5.0 12.0 0.00 0.00 0.00 58 1016.3
20260905064806 80 214 8.0 12.0 0.00 0.00 0.00 58 1016.3
20260905064629 80 204 4.0 12.0 0.00 0.00 0.00 58 1016.2
20260905063806 80 162 5.0 12.0 0.00 0.00 0.00 58 1016.3
20260905063634 80 178 6.0 12.0 0.00 0.00 0.00 57 1016.4
20260905062808 80 228 5.0 12.0 0.00 0.00 0.00 57 1016.3
20260905062309 80 147 5.0 10.0 0.00 0.00 0.00 57 1016.3
20260905061807 81 203 4.0 10.0 0.00 0.00 0.00 57 1016.3
20260905061306 81 169 5.0 12.0 0.00 0.00 0.00 57 1016.3
20260905060808 81 171 5.0 13.0 0.00 0.00 0.00 56 1016.3
20260905060307 81 193 6.0 13.0 0.00 0.00 0.00 56 1016.2
20260905060006 81 79 4.0 13.0 0.00 0.00 0.00 56 1016.2
20260905055918 81 189 3.0 13.0 0.00 0.00 0.00 56 1016.2
20260905054807 81 137 7.0 13.0 0.00 0.00 0.00 56 1016.2
20260905054305 81 183 5.0 10.0 0.00 0.00 0.00 56 1016.2
20260905053806 81 145 5.0 11.0 0.00 0.00 0.00 56 1016.2
20260905053307 81 134 4.0 11.0 0.00 0.00 0.00 55 1016.1
20260905052807 81 140 5.0 11.0 0.00 0.00 0.00 55 1015.9
20260905052306 82 162 5.0 11.0 0.00 0.00 0.00 55 1015.9
20260905051806 82 155 4.0 12.0 0.00 0.00 0.00 54 1015.9
20260905051307 82 173 4.0 12.0 0.00 0.00 0.00 54 1016.2
20260905051144 82 190 4.0 9.0 0.00 0.00 0.00 54 1016.2
20260905051010 82 221 3.0 11.0 0.00 0.00 0.00 53 1016.3
20260905045806 82 193 4.0 12.0 0.00 0.00 0.00 53 1016.4
20260905045307 82 175 7.0 12.0 0.00 0.00 0.00 53 1016.4
20260905044806 83 178 7.0 12.0 0.00 0.00 0.00 52 1016.6
20260905044306 83 196 3.0 9.0 0.00 0.00 0.00 51 1016.4
20260905043806 83 185 4.0 9.0 0.00 0.00 0.00 51 1016.3
20260905043306 83 207 3.0 9.0 0.00 0.00 0.00 50 1016.4
20260905043143 83 173 2.0 10.0 0.00 0.00 0.00 50 1016.4
20260905042307 83 161 3.0 11.0 0.00 0.00 0.00 49 1016.4
20260905041807 84 188 4.0 11.0 0.00 0.00 0.00 48 1016.4
20260905041307 84 133 4.0 10.0 0.00 0.00 0.00 47 1016.4
20260905041131 84 183 3.0 10.0 0.00 0.00 0.00 47 1016.2
20260905040519 85 171 5.0 9.0 0.00 0.00 0.00 45 1016.2
20260905040423 85 199 5.0 9.0 0.00 0.00 0.00 45 1016.2
20260905035308 85 224 4.0 9.0 0.00 0.00 0.00 44 1016.3
20260905034806 86 220 3.0 9.0 0.00 0.00 0.00 43 1016.2
20260905034306 86 137 3.0 9.0 0.00 0.00 0.00 42 1016.1
20260905033806 87 94 3.0 12.0 0.00 0.00 0.00 41 1015.9
20260905033307 87 173 3.0 12.0 0.00 0.00 0.00 41 1015.9
20260905032806 87 124 5.0 10.0 0.00 0.00 0.00 40 1015.8
20260905032306 87 125 4.0 6.0 0.00 0.00 0.00 39 1015.7
20260905031808 88 102 0.0 7.0 0.00 0.00 0.00 39 1015.7
20260905031306 89 152 4.0 7.0 0.00 0.00 0.00 38 1015.7
20260905030806 89 104 3.0 5.0 0.00 0.00 0.00 37 1015.5
20260905030308 89 113 2.0 5.0 0.00 0.00 0.00 37 1015.4
20260905025809 89 133 3.0 5.0 0.00 0.00 0.00 37 1015.3
20260905025633 90 141 2.0 5.0 0.00 0.00 0.00 36 1015.2
20260905025137 90 79 2.0 7.0 0.00 0.00 0.00 36 1015.1
20260905024306 90 216 3.0 7.0 0.00 0.00 0.00 35 1015.1
20260905023805 90 116 3.0 7.0 0.00 0.00 0.00 36 1014.9
20260905023305 90 189 1.0 6.0 0.00 0.00 0.00 35 1014.9
20260905022805 90 190 2.0 7.0 0.00 0.00 0.00 36 1014.8
20260905022306 89 319 4.0 7.0 0.00 0.00 0.00 37 1014.7
20260905021810 89 255 1.0 7.0 0.00 0.00 0.00 38 1014.8
20260905021306 89 0 0.0 7.0 0.00 0.00 0.00 38 1014.5
20260905020805 89 272 2.0 6.0 0.00 0.00 0.00 38 1014.5
20260905020310 88 283 3.0 5.0 0.00 0.00 0.00 40 1014.5
20260905020146 89 243 2.0 6.0 0.00 0.00 0.00 39 1014.4
20260905015309 89 199 2.0 9.0 0.00 0.00 0.00 38 1014.2
20260905015134 89 100 3.0 12.0 0.00 0.00 0.00 38 1014.0
20260905014306 89 103 4.0 12.0 0.00 0.00 0.00 38 1014.0
20260905013805 89 99 6.0 12.0 0.00 0.00 0.00 38 1013.9
20260905013309 90 76 5.0 11.0 0.00 0.00 0.00 38 1013.8
20260905012805 90 111 4.0 11.0 0.00 0.00 0.00 38 1013.8
20260905012306 90 114 5.0 11.0 0.00 0.00 0.00 38 1013.8
20260905011806 90 111 6.0 13.0 0.00 0.00 0.00 38 1013.8
20260905011307 90 120 6.0 13.0 0.00 0.00 0.00 38 1013.7
20260905011027 90 128 5.0 13.0 0.00 0.00 0.00 38 1013.7
20260905010808 90 128 5.0 13.0 0.00 0.00 0.00 38 1013.7
20260905010308 91 157 7.0 15.0 0.00 0.00 0.00 38 1013.6
20260905005806 91 110 5.0 15.0 0.00 0.00 0.00 38 1013.6
20260905005307 91 92 7.0 12.0 0.00 0.00 0.00 38 1013.7
20260905004806 91 61 6.0 12.0 0.00 0.00 0.00 38 1013.6
20260905004306 91 76 6.0 12.0 0.00 0.00 0.00 38 1013.5
20260905003806 92 102 7.0 12.0 0.00 0.00 0.00 37 1013.5
20260905003306 92 107 5.0 12.0 0.00 0.00 0.00 36 1013.4
20260905002806 92 113 7.0 12.0 0.00 0.00 0.00 36 1013.5
20260905002306 93 113 4.0 12.0 0.00 0.00 0.00 35 1013.4
20260905001806 93 79 5.0 12.0 0.00 0.00 0.00 35 1013.4
20260905001309 93 144 6.0 13.0 0.00 0.00 0.00 34 1013.4
20260905000806 94 100 8.0 15.0 0.00 0.00 0.00 33 1013.3
20260905000307 94 107 7.0 16.0 0.00 0.00 0.00 33 1013.3
20260904235806 94 103 9.0 16.0 0.00 0.00 0.00 31 1013.3
20260904235306 95 89 6.0 15.0 0.00 0.00 0.00 30 1013.3
20260904234806 96 117 8.0 14.0 0.00 0.00 0.00 28 1013.2
20260904234304 97 128 6.0 14.0 0.00 0.00 0.00 27 1013.0
20260904233806 97 110 5.0 13.0 0.00 0.00 0.00 27 1012.9
20260904233312 97 219 6.0 12.0 0.00 0.00 0.00 27 1013.0
20260904232806 97 123 5.0 17.0 0.00 0.00 0.00 27 1012.8
20260904232307 97 116 10.0 17.0 0.00 0.00 0.00 27 1012.8
20260904231806 98 110 5.0 15.0 0.00 0.00 0.00 27 1012.8
20260904231306 98 113 6.0 15.0 0.00 0.00 0.00 27 1012.8
20260904231113 98 103 5.0 12.0 0.00 0.00 0.00 27 1012.7
20260904230644 98 93 4.0 13.0 0.00 0.00 0.00 27 1012.7
20260904225809 98 90 7.0 13.0 0.00 0.00 0.00 27 1012.8
20260904225306 98 106 6.0 12.0 0.00 0.00 0.00 26 1012.8
20260904225149 98 158 5.0 13.0 0.00 0.00 0.00 27 1012.8
20260904224305 98 190 6.0 16.0 0.00 0.00 0.00 27 1012.9
20260904223805 98 103 8.0 16.0 0.00 0.00 0.00 26 1012.9
20260904223305 98 133 6.0 15.0 0.00 0.00 0.00 27 1012.9
20260904223118 98 154 5.0 13.0 0.00 0.00 0.00 27 1012.9
20260904222647 98 117 6.0 13.0 0.00 0.00 0.00 27 1013.2
20260904222150 98 123 6.0 16.0 0.00 0.00 0.00 27 1013.2
20260904221649 98 127 6.0 16.0 0.00 0.00 0.00 28 1013.2
20260904220804 98 124 8.0 15.0 0.00 0.00 0.00 27 1013.2
20260904220308 99 133 6.0 16.0 0.00 0.00 0.00 27 1013.2
20260904215806 99 131 7.0 16.0 0.00 0.00 0.00 28 1013.2
20260904215649 99 164 8.0 15.0 0.00 0.00 0.00 28 1013.2
20260904214805 99 182 7.0 18.0 0.00 0.00 0.00 28 1013.2
20260904214646 99 173 9.0 18.0 0.00 0.00 0.00 28 1013.2
20260904213806 99 188 8.0 17.0 0.00 0.00 0.00 28 1013.3
20260904213540 100 73 6.0 17.0 0.00 0.00 0.00 28 1013.2
20260904212805 100 145 7.0 17.0 0.00 0.00 0.00 27 1013.2
20260904212307 101 103 7.0 15.0 0.00 0.00 0.00 27 1013.3
20260904212135 100 111 7.0 15.0 0.00 0.00 0.00 28 1013.2
20260904211640 99 79 6.0 15.0 0.00 0.00 0.00 27 1013.4
20260904210805 100 176 9.0 13.0 0.00 0.00 0.00 26 1013.4
20260904210305 101 179 5.0 12.0 0.00 0.00 0.00 26 1013.4
20260904205806 101 155 5.0 12.0 0.00 0.00 0.00 26 1013.4
20260904205309 101 149 6.0 14.0 0.00 0.00 0.00 27 1013.5
20260904205054 101 117 6.0 14.0 0.00 0.00 0.00 26 1013.5
20260904204407 100 234 4.0 12.0 0.00 0.00 0.00 27 1013.5
20260904203305 100 234 6.0 13.0 0.00 0.00 0.00 27 1013.6
20260904203117 100 175 7.0 11.0 0.00 0.00 0.00 28 1013.8
20260904202307 98 121 5.0 9.0 0.00 0.00 0.00 30 1013.8
20260904201806 100 137 4.0 7.0 0.00 0.00 0.00 27 1013.9
20260904201305 101 117 3.0 9.0 0.00 0.00 0.00 28 1014.0
20260904200806 100 142 5.0 15.0 0.00 0.00 0.00 27 1014.0
20260904200305 101 127 5.0 15.0 0.00 0.00 0.00 28 1014.2
20260904195805 100 180 5.0 12.0 0.00 0.00 0.00 29 1014.0
20260904195306 99 142 3.0 11.0 0.00 0.00 0.00 30 1014.4
20260904194807 98 244 6.0 11.0 0.00 0.00 0.00 30 1014.4
20260904194305 99 245 4.0 7.0 0.00 0.00 0.00 29 1014.4
20260904194036 100 244 2.0 6.0 0.00 0.00 0.00 29 1014.6
20260904193934 100 138 3.0 7.0 0.00 0.00 0.00 28 1014.4
20260904192805 99 114 3.0 13.0 0.00 0.00 0.00 28 1014.5
20260904192542 100 219 4.0 10.0 0.00 0.00 0.00 28 1014.6
20260904192432 100 188 4.0 13.0 0.00 0.00 0.00 28 1014.6
20260904191307 99 171 6.0 10.0 0.00 0.00 0.00 29 1014.7
20260904191211 99 97 4.0 10.0 0.00 0.00 0.00 29 1014.7
20260904190304 100 172 4.0 11.0 0.00 0.00 0.00 31 1014.9
20260904185807 99 131 5.0 11.0 0.00 0.00 0.00 29 1014.9
20260904185310 99 272 2.0 6.0 0.00 0.00 0.00 30 1014.9
20260904184806 98 250 2.0 6.0 0.00 0.00 0.00 29 1015.1
20260904184306 98 175 3.0 7.0 0.00 0.00 0.00 31 1015.1
20260904183806 98 188 4.0 10.0 0.00 0.00 0.00 30 1015.3
20260904183305 99 186 3.0 10.0 0.00 0.00 0.00 31 1015.3
20260904182806 98 221 2.0 6.0 0.00 0.00 0.00 30 1015.4
20260904182306 99 220 3.0 9.0 0.00 0.00 0.00 31 1015.4
20260904181805 98 254 5.0 9.0 0.00 0.00 0.00 30 1015.4
20260904181306 98 185 3.0 10.0 0.00 0.00 0.00 31 1015.4
20260904181152 97 243 2.0 10.0 0.00 0.00 0.00 32 1015.5
20260904180306 98 219 3.0 7.0 0.00 0.00 0.00 33 1015.6
20260904175805 98 259 3.0 6.0 0.00 0.00 0.00 32 1015.5
20260904175311 98 238 4.0 6.0 0.00 0.00 0.00 33 1015.6
20260904174807 97 279 2.0 9.0 0.00 0.00 0.00 31 1015.8
20260904174305 97 193 3.0 9.0 0.00 0.00 0.00 33 1015.7
20260904173810 96 276 3.0 12.0 0.00 0.00 0.00 32 1015.8
20260904173306 96 247 7.0 12.0 0.00 0.00 0.00 33 1015.9